Voltar ao catálogo

STARLINK-5977

AtivoComunicaçõesVLEO
NORAD 56791·PAYLOAD·🇺🇸 United States

Lançado May 31, 2023 de Vandenberg Space Force Base

Loading…

Próximas Passagens (próximas 24 horas)

TLE

AtualizadoSource: CelesTrak SupGP

Época: Sep 14, 2026, 21:17 UTC

1 56791C 23078AA  26257.88729167  .00030142  00000+0  25258-2 0  2578
2 56791  70.0009 227.3203 0003275 266.2261  60.3200 14.98318926    10

Acompanhe STARLINK-5977 em tempo real com AllMySat

Download on the App Store